Weather History for VTUK - August, 2013

Change the Weather History Date:

Tuesday, August 6, 2013

  Actual Average Record
Temperature  
Mean Temperature 86 °F -  
Max Temperature 95 °F 90 °F - ()
Min Temperature 77 °F 76 °F - ()
Cooling Degree Days 21    
Growing Degree Days 36 (Base 50)    
Moisture  
Dew Point 76 °F    
Average Humidity 74    
Maximum Humidity 94    
Minimum Humidity 46    
Precipitation  
Precipitation 0.00 in 0.27 in - ()
Sea Level Pressure  
Sea Level Pressure 29.71 in    
Wind  
Wind Speed 1 mph ()    
Max Wind Speed 7 mph    
Max Gust Speed -    
Visibility 6.2 miles    
Events      
T = Trace of Precipitation, MM = Missing Value Source: Averaged Metar Reports

Daily Weather History Graph

Daily Weather History Graph

Search for Another Location

Airport or City:

Trip Planner

Search our weather history database for the weather conditions in past years. The results will help you decide how hot, cold, wet, or windy it might be!

Date:

Astronomy

Aug. 06, 2013 Rise Set
Actual Time 5:50 AM ICT 6:38 PM ICT
Civil Twilight 5:28 AM ICT 7:01 PM ICT
Nautical Twilight 5:01 AM ICT 7:27 PM ICT
Astronomical Twilight 4:34 AM ICT 7:55 PM ICT
Moon 5:07 AM ICT (8/6) 6:03 PM ICT (8/6)
Length of Visible Light 13h 33m
Length of Day
12h 47m
Waning Crescent, 0% of the Moon is Illuminated
Aug 6
Waning Crescent
Aug 7
New
Aug 14
First Quarter
Aug 21
Full
Aug 28
Last Quarter

Hourly Weather History & Observations

Time (ICT) Temp. Heat Index Dew Point Humidity Pressure Visibility Wind Dir Wind Speed Gust Speed Precip Events Conditions
1:00 AM 81 °F - 77 °F 83% 29.75 in 6 mi Calm Calm - -   Scattered Clouds
1:00 AM 80.6 °F 87.1 °F 77.0 °F 89% 29.77 in 6.2 mi Calm Calm - N/A   Scattered Clouds
4:00 AM 78.8 °F - 77.0 °F 94% 29.74 in 6.2 mi Calm Calm - N/A   Scattered Clouds
6:00 AM 77.0 °F - 75.2 °F 94% 29.74 in 6.2 mi Calm Calm - N/A   Scattered Clouds
7:00 AM 79 °F - 76 °F 90% 29.73 in 6 mi Calm Calm - -   Scattered Clouds
7:00 AM 78.8 °F - 77.0 °F 94% 29.74 in 6.2 mi Calm Calm - N/A   Partly Cloudy
8:00 AM 80.6 °F 87.1 °F 77.0 °F 89% 29.77 in 6.2 mi NNW 2.3 mph - N/A   Partly Cloudy
9:00 AM 86.0 °F 95.1 °F 75.2 °F 70% 29.77 in - WSW 3.5 mph - N/A   Clear
10:00 AM 89.6 °F 99.8 °F 75.2 °F 62% 29.74 in 6.2 mi NNW 3.5 mph - N/A   Partly Cloudy
11:00 AM 89.6 °F 98.2 °F 73.4 °F 59% 29.74 in 6.2 mi WNW 5.8 mph - N/A   Scattered Clouds
12:00 PM 91.4 °F 100.1 °F 73.4 °F 55% 29.74 in 6.2 mi WNW 6.9 mph - N/A   Scattered Clouds
1:00 PM 92 °F - 74 °F 46% 29.69 in 7 mi NNW 3.5 mph - -   Scattered Clouds
1:00 PM 93.2 °F 102.4 °F 73.4 °F 52% 29.71 in 6.2 mi NNW 4.6 mph - N/A   Scattered Clouds
2:00 PM 93.2 °F 102.4 °F 73.4 °F 52% 29.68 in 6.2 mi NW 5.8 mph - N/A   Mostly Cloudy
3:00 PM 87.8 °F 95.6 °F 73.4 °F 62% 29.65 in 6.2 mi ENE 2.3 mph - N/A   Mostly Cloudy
4:00 PM 89.6 °F 99.8 °F 75.2 °F 62% 29.62 in 6.2 mi NNE 2.3 mph - N/A   Mostly Cloudy
5:00 PM 87.8 °F 99.7 °F 77.0 °F 70% 29.62 in 6.2 mi Calm Calm - N/A   Mostly Cloudy
6:00 PM 87.8 °F 102.5 °F 78.8 °F 75% 29.62 in 6.2 mi Calm Calm - N/A   Mostly Cloudy
7:00 PM 87 °F - 78 °F 69% 29.65 in 6 mi Calm Calm - -   Scattered Clouds
7:00 PM 84.2 °F 96.1 °F 78.8 °F 84% 29.65 in 6.2 mi Variable 2.3 mph - N/A   Mostly Cloudy
8:00 PM 82.4 °F 92.4 °F 78.8 °F 89% 29.68 in 6.2 mi SSE 3.5 mph - N/A   Mostly Cloudy
9:00 PM 82.4 °F 92.4 °F 78.8 °F 89% 29.71 in 6.2 mi Calm Calm - N/A   Mostly Cloudy